When you browse on this site, cookies collect data to enhance your experience and personalize the content and advertising you see.
Visit our Privacy Policy to learn more. By continuing to use the site, you agree to this use of cookies and data.
  • In Latvia
  • List of Countries
  • For 7 days
  • Water Temperature
  • Weather Map
  • Weather Widgets
  • user-avatar
    Login

    Hourly Weather Graz

    Today, 22 September, Sunday

    Time Temperature Precipitation Wind Pressure Humidity
    00:00 +9°C° 0 mm 1 mps 727 mmHg 81%
    01:00 +9°C° 0 mm 1 mps 726 mmHg 84%
    02:00 +9°C° 0 mm 1 mps 726 mmHg 85%
    03:00 +8°C° 0 mm 1 mps 726 mmHg 86%
    04:00 +8°C° 0 mm 1 mps 725 mmHg 87%
    05:00 +8°C° 0 mm 0 mps 725 mmHg 85%
    06:00 +8°C° 0 mm 0 mps 725 mmHg 82%
    07:00 +9°C° 0 mm 0 mps 725 mmHg 80%
    08:00 +12°C° 0 mm 1 mps 725 mmHg 72%
    09:00 +15°C° 0 mm 1 mps 725 mmHg 63%
    10:00 +18°C° 0 mm 1 mps 725 mmHg 55%
    11:00 +19°C° 0 mm 1 mps 724 mmHg 53%
    12:00 +20°C° 0 mm 1 mps 724 mmHg 51%
    13:00 +20°C° 0 mm 1 mps 723 mmHg 50%
    14:00 +20°C° 0 mm 1 mps 723 mmHg 53%
    15:00 +20°C° 0 mm 1 mps 723 mmHg 56%
    16:00 +20°C° 0 mm 1 mps 722 mmHg 59%
    17:00 +18°C° 0 mm 1 mps 722 mmHg 65%
    18:00 +16°C° 0 mm 1 mps 722 mmHg 71%
    19:00 +14°C° 0 mm 1 mps 722 mmHg 77%
    20:00 +14°C° 0 mm 1 mps 722 mmHg 79%
    21:00 +13°C° 0 mm 1 mps 722 mmHg 80%
    22:00 +13°C° 0 mm 1 mps 721 mmHg 81%
    23:00 +13°C° 0 mm 1 mps 721 mmHg 82%

    Tomorrow, 23 September, Monday

    Time Temperature Precipitation Wind Pressure Humidity
    00:00 +12°C° 0 mm 1 mps 721 mmHg 83%
    01:00 +12°C° 0 mm 1 mps 721 mmHg 84%
    02:00 +12°C° 0 mm 1 mps 721 mmHg 85%
    03:00 +12°C° 0 mm 1 mps 721 mmHg 86%
    04:00 +12°C° 0 mm 1 mps 720 mmHg 87%
    05:00 +12°C° 0 mm 1 mps 720 mmHg 85%
    06:00 +13°C° 0 mm 1 mps 720 mmHg 83%
    07:00 +14°C° 0 mm 1 mps 721 mmHg 81%
    08:00 +16°C° 0 mm 1 mps 721 mmHg 73%
    09:00 +20°C° 0 mm 1 mps 721 mmHg 65%
    10:00 +21°C° 0 mm 0 mps 722 mmHg 57%
    11:00 +23°C° 0 mm 1 mps 722 mmHg 56%
    12:00 +24°C° 0 mm 2 mps 722 mmHg 55%
    13:00 +24°C° 0 mm 2 mps 722 mmHg 54%
    14:00 +23°C° 0.1 mm 2 mps 722 mmHg 59%
    15:00 +21°C° 0.1 mm 2 mps 722 mmHg 64%
    16:00 +21°C° 0.1 mm 1 mps 722 mmHg 69%
    17:00 +20°C° 0.3 mm 1 mps 722 mmHg 74%
    18:00 +18°C° 0.3 mm 1 mps 722 mmHg 80%
    19:00 +16°C° 0.3 mm 1 mps 722 mmHg 86%
    20:00 +15°C° 0.9 mm 1 mps 723 mmHg 87%
    21:00 +15°C° 0.9 mm 1 mps 723 mmHg 88%
    22:00 +14°C° 0.9 mm 1 mps 723 mmHg 89%
    23:00 +14°C° 0.2 mm 1 mps 723 mmHg 89%

    Day after tomorrow, 24 September, Tuesday

    Time Temperature Precipitation Wind Pressure Humidity
    00:00 +14°C° 0.2 mm 1 mps 723 mmHg 89%
    01:00 +14°C° 0.2 mm 1 mps 723 mmHg 88%
    02:00 +14°C° 0 mm 1 mps 723 mmHg 88%
    03:00 +14°C° 0 mm 1 mps 723 mmHg 88%
    04:00 +14°C° 0 mm 1 mps 723 mmHg 87%
    05:00 +14°C° 0 mm 1 mps 723 mmHg 87%
    06:00 +14°C° 0 mm 1 mps 723 mmHg 87%
    07:00 +14°C° 0 mm 1 mps 723 mmHg 87%
    08:00 +16°C° 0 mm 1 mps 723 mmHg 80%
    09:00 +18°C° 0 mm 1 mps 723 mmHg 73%
    10:00 +18°C° 0 mm 0 mps 723 mmHg 65%
    11:00 +21°C° 0 mm 1 mps 723 mmHg 62%
    12:00 +22°C° 0 mm 1 mps 722 mmHg 59%
    13:00 +22°C° 0 mm 1 mps 722 mmHg 56%
    14:00 +22°C° 0 mm 1 mps 722 mmHg 58%
    15:00 +21°C° 0 mm 1 mps 721 mmHg 61%
    16:00 +21°C° 0 mm 1 mps 721 mmHg 64%
    17:00 +19°C° 0 mm 1 mps 720 mmHg 71%
    18:00 +18°C° 0 mm 1 mps 720 mmHg 78%
    19:00 +15°C° 0 mm 1 mps 720 mmHg 85%
    20:00 +14°C° 0 mm 1 mps 720 mmHg 87%
    21:00 +13°C° 0 mm 0 mps 720 mmHg 88%
    22:00 +12°C° 0 mm 0 mps 720 mmHg 90%
    23:00 +13°C° 0 mm 1 mps 720 mmHg 90%

    25 September, Wednesday

    Time Temperature Precipitation Wind Pressure Humidity
    00:00 +13°C° 0 mm 1 mps 720 mmHg 90%
    01:00 +13°C° 0 mm 1 mps 720 mmHg 90%
    02:00 +13°C° 0 mm 1 mps 720 mmHg 91%
    03:00 +13°C° 0 mm 1 mps 720 mmHg 91%
    04:00 +13°C° 0 mm 1 mps 720 mmHg 91%
    05:00 +13°C° 0 mm 1 mps 719 mmHg 89%
    06:00 +13°C° 0 mm 1 mps 719 mmHg 87%
    07:00 +14°C° 0 mm 1 mps 719 mmHg 85%
    08:00 +16°C° 0 mm 1 mps 720 mmHg 78%
    09:00 +19°C° 0 mm 1 mps 720 mmHg 72%
    10:00 +21°C° 0 mm 1 mps 720 mmHg 65%
    11:00 +21°C° 0.3 mm 1 mps 720 mmHg 65%
    12:00 +21°C° 0.3 mm 1 mps 720 mmHg 64%
    13:00 +21°C° 0.3 mm 1 mps 720 mmHg 64%
    14:00 +20°C° 1.2 mm 1 mps 720 mmHg 72%
    15:00 +17°C° 1.2 mm 2 mps 719 mmHg 79%
    16:00 +16°C° 1.2 mm 2 mps 719 mmHg 87%
    17:00 +15°C° 2.1 mm 2 mps 720 mmHg 89%
    18:00 +14°C° 2.1 mm 2 mps 720 mmHg 91%
    19:00 +13°C° 2.1 mm 2 mps 721 mmHg 92%
    20:00 +13°C° 0.5 mm 1 mps 721 mmHg 92%
    21:00 +13°C° 0.5 mm 1 mps 721 mmHg 92%
    22:00 +12°C° 0.5 mm 1 mps 721 mmHg 92%
    23:00 +12°C° 0 mm 1 mps 722 mmHg 91%

    26 September, Thursday

    Time Temperature Precipitation Wind Pressure Humidity
    00:00 +11°C° 0 mm 1 mps 722 mmHg 91%
    01:00 +11°C° 0 mm 1 mps 722 mmHg 91%
    02:00 +11°C° 0 mm 1 mps 722 mmHg 90%
    03:00 +10°C° 0 mm 1 mps 722 mmHg 90%
    04:00 +10°C° 0 mm 1 mps 722 mmHg 90%
    05:00 +11°C° 0 mm 1 mps 723 mmHg 89%
    06:00 +11°C° 0 mm 1 mps 723 mmHg 89%
    07:00 +11°C° 0 mm 1 mps 723 mmHg 88%
    08:00 +14°C° 0 mm 1 mps 724 mmHg 79%
    09:00 +16°C° 0 mm 1 mps 724 mmHg 71%
    10:00 +19°C° 0 mm 1 mps 725 mmHg 62%
    11:00 +20°C° 0 mm 1 mps 724 mmHg 57%
    12:00 +21°C° 0 mm 1 mps 724 mmHg 52%
    13:00 +22°C° 0 mm 1 mps 724 mmHg 48%
    14:00 +22°C° 0 mm 1 mps 724 mmHg 51%
    15:00 +21°C° 0 mm 1 mps 724 mmHg 55%
    16:00 +21°C° 0 mm 1 mps 724 mmHg 58%
    17:00 +19°C° 0 mm 1 mps 724 mmHg 65%
    18:00 +16°C° 0 mm 1 mps 724 mmHg 72%
    19:00 +14°C° 0 mm 1 mps 724 mmHg 79%
    20:00 +14°C° 0 mm 1 mps 724 mmHg 80%
    21:00 +13°C° 0 mm 1 mps 724 mmHg 80%
    22:00 +13°C° 0 mm 1 mps 724 mmHg 81%
    23:00 +13°C° 0 mm 1 mps 724 mmHg 81%

    27 September, Friday

    Time Temperature Precipitation Wind Pressure Humidity
    00:00 +13°C° 0 mm 1 mps 724 mmHg 82%
    01:00 +12°C° 0 mm 1 mps 724 mmHg 82%
    02:00 +12°C° 0 mm 1 mps 724 mmHg 83%
    03:00 +12°C° 0 mm 1 mps 724 mmHg 84%
    04:00 +12°C° 0 mm 1 mps 724 mmHg 84%
    05:00 +12°C° 0 mm 1 mps 724 mmHg 83%
    06:00 +13°C° 0 mm 1 mps 724 mmHg 81%
    07:00 +13°C° 0 mm 1 mps 724 mmHg 80%
    08:00 +16°C° 0 mm 1 mps 724 mmHg 71%
    09:00 +19°C° 0 mm 1 mps 724 mmHg 63%
    10:00 +22°C° 0 mm 1 mps 725 mmHg 55%
    11:00 +22°C° 0 mm 1 mps 724 mmHg 52%
    12:00 +23°C° 0 mm 1 mps 724 mmHg 49%
    13:00 +24°C° 0 mm 1 mps 724 mmHg 46%
    14:00 +24°C° 0 mm 1 mps 724 mmHg 50%
    15:00 +23°C° 0 mm 1 mps 723 mmHg 54%
    16:00 +22°C° 0 mm 1 mps 723 mmHg 58%
    17:00 +20°C° 0 mm 1 mps 723 mmHg 64%
    18:00 +19°C° 0 mm 1 mps 723 mmHg 71%
    19:00 +16°C° 0 mm 1 mps 723 mmHg 77%
    20:00 +15°C° 0 mm 1 mps 723 mmHg 78%
    21:00 +15°C° 0 mm 1 mps 723 mmHg 79%
    22:00 +14°C° 0 mm 1 mps 723 mmHg 80%
    23:00 +14°C° 0 mm 1 mps 723 mmHg 81%
    Show more